SAS2892 EKCH-ENAL

Flight info

Callsign SAS2892
Flight time N/A
Altitude 34000
Route GOLGA DCT OBITI
Aircraft A320/M-SDE3FGHIRWY/LB1

Departure

Time 2026-04-30 21:40
Airport Copenhagen Kastrup Airport (EKCH)

Arrival

Time N/A
Airport Ålesund Airport (ENAL)
Time Latitude Longitude Altitude Speed Heading
2026-04-30 21:08 55.62557 12.65447 17 ft 0 kts 89°
2026-04-30 21:10 55.62557 12.65449 17 ft 0 kts 89°
2026-04-30 21:28 55.62556 12.65435 17 ft 4 kts 89°
2026-04-30 21:29 55.62556 12.65387 17 ft 3 kts 88°
2026-04-30 21:29 55.62570 12.65323 19 ft 4 kts 179°
2026-04-30 21:30 55.62528 12.65325 17 ft 0 kts 179°
2026-04-30 21:33 55.62523 12.65325 17 ft 2 kts 179°
2026-04-30 21:33 55.62503 12.65326 17 ft 4 kts 178°
2026-04-30 21:34 55.62456 12.65329 19 ft 9 kts 178°
2026-04-30 21:34 55.62336 12.65333 17 ft 7 kts 179°
2026-04-30 21:34 55.62296 12.65302 17 ft 6 kts 236°
2026-04-30 21:35 55.62284 12.65221 18 ft 6 kts 241°
2026-04-30 21:35 55.62236 12.65195 17 ft 10 kts 183°
2026-04-30 21:35 55.62163 12.65130 18 ft 13 kts 215°
2026-04-30 21:35 55.62085 12.65039 18 ft 15 kts 213°
2026-04-30 21:36 55.62002 12.64943 17 ft 14 kts 213°
2026-04-30 21:36 55.61922 12.64851 17 ft 13 kts 213°
2026-04-30 21:37 55.61679 12.64570 18 ft 15 kts 213°
2026-04-30 21:37 55.61597 12.64477 17 ft 14 kts 212°
2026-04-30 21:37 55.61510 12.64381 18 ft 16 kts 212°
2026-04-30 21:37 55.61415 12.64271 19 ft 17 kts 214°
2026-04-30 21:38 55.61308 12.64148 17 ft 19 kts 213°
2026-04-30 21:38 55.61188 12.64009 17 ft 22 kts 214°
2026-04-30 21:38 55.61055 12.63854 19 ft 24 kts 213°
2026-04-30 21:38 55.60914 12.63691 17 ft 22 kts 213°
2026-04-30 21:39 55.60800 12.63588 17 ft 16 kts 174°
2026-04-30 21:39 55.60726 12.63705 19 ft 14 kts 131°
2026-04-30 21:39 55.60671 12.63821 19 ft 10 kts 122°
2026-04-30 21:39 55.60701 12.63912 19 ft 9 kts 39°
2026-04-30 21:40 55.60815 12.64086 20 ft 51 kts 40°
2026-04-30 21:40 55.61283 12.64809 20 ft 121 kts 41°
2026-04-30 21:40 55.62043 12.65985 64 ft 167 kts 41°
2026-04-30 21:40 55.62899 12.67351 787 ft 165 kts 39°
2026-04-30 21:41 55.63747 12.68719 1533 ft 165 kts 38°
2026-04-30 21:41 55.64693 12.69841 2156 ft 168 kts 19°
2026-04-30 21:41 55.65854 12.70450 2564 ft 182 kts 11°
2026-04-30 21:41 55.67160 12.70671 2955 ft 196 kts 356°
2026-04-30 21:42 55.68570 12.70404 3314 ft 212 kts 353°
2026-04-30 21:42 55.70087 12.70102 3730 ft 229 kts 354°
2026-04-30 21:42 55.71739 12.69794 4187 ft 248 kts 352°
2026-04-30 21:42 55.73411 12.68749 4801 ft 264 kts 327°
2026-04-30 21:43 55.74731 12.66417 5557 ft 272 kts 309°
2026-04-30 21:43 55.75491 12.64646 6154 ft 273 kts 309°
2026-04-30 21:43 55.77051 12.61060 7322 ft 275 kts 310°
2026-04-30 21:43 55.78233 12.58380 8165 ft 277 kts 310°
2026-04-30 21:44 55.79432 12.55655 8950 ft 282 kts 310°
2026-04-30 21:44 55.80644 12.52889 9771 ft 285 kts 310°
2026-04-30 21:44 55.81867 12.50084 10547 ft 290 kts 310°
2026-04-30 21:44 55.83144 12.47164 10919 ft 308 kts 310°
2026-04-30 21:45 55.84514 12.44056 11164 ft 330 kts 310°
2026-04-30 21:45 55.85955 12.40766 11610 ft 342 kts 310°
2026-04-30 21:45 55.87427 12.37385 12258 ft 348 kts 311°
2026-04-30 21:45 55.89135 12.34344 12907 ft 349 kts 323°
2026-04-30 21:46 55.91027 12.31600 13574 ft 353 kts 324°
2026-04-30 21:46 55.92942 12.28824 14242 ft 357 kts 324°
2026-04-30 21:46 55.94878 12.26016 14853 ft 360 kts 324°
2026-04-30 21:46 55.96847 12.23164 15244 ft 371 kts 323°
2026-04-30 21:47 55.98834 12.20286 15756 ft 376 kts 323°